カタログに戻る

SL-16 DEB

運用中LEO
NORAD 22430·DEBRIS·🇷🇺 Russia

打ち上げ Dec 25, 1992 から Baikonur Cosmodrome

Loading…

次のパス (今後24時間)

TLE

最新Source: Space-Track

元期: Sep 13, 2026, 20:00 UTC

1 22430U 92093DX  26256.83352093  .00000106  00000-0  10362-3 0  9990
2 22430  71.2364  47.1010 0116307 268.3758 207.4586 13.96135956712848

AllMySatでSL-16 DEBをリアルタイム追跡

Download on the App Store